Weather History for KPYM - August, 2013

Change the Weather History Date:

Friday, August 30, 2013

  Actual Average Record
Temperature  
Mean Temperature 68 °F -  
Max Temperature 79 °F 78 °F 95 °F (1953)
Min Temperature 57 °F 58 °F 41 °F (1986)
Cooling Degree Days 2    
Growing Degree Days 18 (Base 50)    
Moisture  
Dew Point 60 °F    
Average Humidity 80    
Maximum Humidity 90    
Minimum Humidity 61    
Precipitation  
Precipitation 0.00 in - - ()
Sea Level Pressure  
Sea Level Pressure 29.95 in    
Wind  
Wind Speed 6 mph (WSW)    
Max Wind Speed 12 mph    
Max Gust Speed -    
Visibility 10 miles    
Events      
Averages and records for this station are not official NWS values.
T = Trace of Precipitation, MM = Missing Value Source: NWS Daily Summary

Daily Weather History Graph

Daily Weather History Graph

Search for Another Location

Airport or City:

Trip Planner

Search our weather history database for the weather conditions in past years. The results will help you decide how hot, cold, wet, or windy it might be!

Date:

Astronomy

Aug. 30, 2013 Rise Set
Actual Time 6:06 AM EDT 7:19 PM EDT
Civil Twilight 5:37 AM EDT 7:48 PM EDT
Nautical Twilight 5:03 AM EDT 8:22 PM EDT
Astronomical Twilight 4:27 AM EDT 8:58 PM EDT
Moon 12:39 AM EDT (8/30) 3:35 PM EDT (8/30)
Length of Visible Light 14h 10m
Length of Day
13h 12m
Waning Crescent, 29% of the Moon is Illuminated
Aug 30
Waning Crescent
Sep 5
New
Sep 12
First Quarter
Sep 19
Full
Sep 26
Last Quarter

Hourly Weather History & Observations

Time (EDT) Temp. Dew Point Humidity Pressure Visibility Wind Dir Wind Speed Gust Speed Precip Events Conditions
12:20 AM 59.0 °F 55.4 °F 88% 30.02 in 10.0 mi NNW 4.6 mph - N/A   Mostly Cloudy
12:32 AM 60.8 °F 55.4 °F 82% 30.02 in 10.0 mi NNW 5.8 mph - N/A   Overcast
12:52 AM 60.1 °F 55.9 °F 86% 30.02 in 10.0 mi NNW 5.8 mph - N/A   Overcast
1:07 AM 59.0 °F 55.4 °F 88% 30.02 in 10.0 mi NNW 3.5 mph - N/A   Scattered Clouds
1:52 AM 57.9 °F 55.0 °F 90% 30.01 in 10.0 mi NNW 4.6 mph - N/A   Clear
2:10 AM 59.0 °F 55.4 °F 88% 30.01 in 10.0 mi North 4.6 mph - N/A   Mostly Cloudy
2:52 AM 60.1 °F 57.0 °F 90% 30.00 in 10.0 mi Calm Calm - N/A   Overcast
3:52 AM 61.0 °F 57.0 °F 87% 29.99 in 10.0 mi Calm Calm - N/A   Overcast
4:52 AM 61.0 °F 57.0 °F 87% 29.98 in 10.0 mi WNW 3.5 mph - N/A   Overcast
5:52 AM 61.0 °F 57.0 °F 87% 29.99 in 10.0 mi West 4.6 mph - N/A   Overcast
6:52 AM 62.1 °F 57.0 °F 84% 30.00 in 10.0 mi West 4.6 mph - N/A   Overcast
7:52 AM 63.0 °F 57.9 °F 84% 29.99 in 10.0 mi West 6.9 mph - N/A   Overcast
8:52 AM 64.9 °F 57.9 °F 78% 29.99 in 10.0 mi WSW 6.9 mph - N/A   Mostly Cloudy
9:30 AM 64.4 °F 57.2 °F 77% 29.98 in 10.0 mi West 9.2 mph - N/A   Overcast
9:52 AM 66.0 °F 59.0 °F 78% 29.98 in 10.0 mi WSW 6.9 mph - N/A   Overcast
9:54 AM 66.2 °F 59.0 °F 78% 29.98 in 10.0 mi West 6.9 mph - N/A   Overcast
10:52 AM 66.9 °F 60.1 °F 79% 29.97 in 10.0 mi WSW 9.2 mph - N/A   Overcast
11:52 AM 70.0 °F 61.0 °F 73% 29.95 in 10.0 mi WSW 8.1 mph - N/A   Overcast
12:21 PM 71.6 °F 62.6 °F 73% 29.94 in 10.0 mi WSW 10.4 mph - N/A   Overcast
12:52 PM 72.0 °F 62.1 °F 71% 29.93 in 10.0 mi WSW 9.2 mph - N/A   Overcast
1:52 PM 75.0 °F 63.0 °F 66% 29.91 in 10.0 mi SW 10.4 mph - N/A   Overcast
2:52 PM 75.9 °F 64.0 °F 67% 29.88 in 10.0 mi WSW 9.2 mph - N/A   Mostly Cloudy
3:36 PM 78.8 °F 64.4 °F 61% 29.88 in 10.0 mi WSW 9.2 mph - N/A   Scattered Clouds
3:52 PM 78.1 °F 64.9 °F 64% 29.87 in 10.0 mi SW 11.5 mph - N/A   Partly Cloudy
4:52 PM 78.1 °F 64.9 °F 64% 29.86 in 10.0 mi SW 10.4 mph - N/A   Clear
5:52 PM 77.0 °F 64.9 °F 66% 29.87 in 10.0 mi SW 8.1 mph - N/A   Clear
6:52 PM 73.9 °F 64.9 °F 73% 29.86 in 10.0 mi SSW 4.6 mph - N/A   Clear
7:52 PM 71.1 °F 64.9 °F 81% 29.87 in 10.0 mi SSW 6.9 mph - N/A   Clear
8:52 PM 69.1 °F 64.9 °F 87% 29.87 in 10.0 mi SSW 5.8 mph - N/A   Clear
9:52 PM 69.1 °F 64.9 °F 87% 29.87 in 10.0 mi SW 4.6 mph - N/A   Clear
10:52 PM 68.0 °F 64.9 °F 90% 29.87 in 8.0 mi SSW 4.6 mph - N/A   Clear
11:52 PM 68.0 °F 64.9 °F 90% 29.86 in 6.0 mi Variable 3.5 mph - N/A   Clear